FW0689 Weather Reports


Display with metric or nautical units.
time (UTC)temp
F
wind
direction
speed
MPH
gust
MPH
rain 1hr
in
rain 24hr
in
rain mn
in
humidity
%
barometer
mb
20260510165334 56 1 0.0 0.0 0.00 0.00 0.00 44 1016.8
20260510163332 56 10 0.0 0.0 0.00 0.00 0.00 43 1017.0
20260510162333 55 12 0.0 0.0 0.00 0.00 0.00 43 1017.1
20260510160430 56 8 0.0 0.0 0.00 0.00 0.00 43 1017.2
20260510155448 57 5 0.0 0.0 0.00 0.00 0.00 42 1017.4
20260510154537 58 13 0.0 0.0 0.00 0.00 0.00 43 1017.4
20260510153534 58 357 0.0 0.0 0.00 0.00 0.00 43 1017.3
20260510152632 58 28 0.0 0.0 0.00 0.00 0.00 43 1017.3
20260510151632 59 1 0.0 0.0 0.00 0.00 0.00 44 1017.4
20260510150631 59 1 0.0 0.0 0.00 0.00 0.00 44 1017.3
20260510144633 61 13 0.0 0.0 0.00 0.00 0.00 44 1017.4
20260510143730 61 24 0.0 0.0 0.00 0.00 0.00 44 1017.5
20260510141732 61 350 0.0 0.0 0.00 0.00 0.00 44 1017.6
20260510140733 62 20 0.0 0.0 0.00 0.00 0.00 44 1017.8
20260510135731 62 1 0.0 0.0 0.00 0.00 0.00 43 1017.8
20260510133733 63 10 0.0 0.0 0.00 0.00 0.00 43 1017.8
20260510132731 63 18 0.0 0.0 0.00 0.00 0.00 43 1018.0
20260510131830 63 23 0.0 0.0 0.00 0.00 0.00 43 1018.0
20260510130833 63 355 0.0 0.0 0.00 0.00 0.00 43 1018.2
20260510125831 62 354 0.0 0.0 0.00 0.00 0.00 43 1018.2
20260510124832 63 23 0.0 0.0 0.00 0.00 0.00 43 1018.3
20260510123931 62 356 0.0 0.0 0.00 0.00 0.00 43 1018.4
20260510122933 63 2 0.0 0.0 0.00 0.00 0.00 43 1018.5
20260510121931 63 1 0.0 0.0 0.00 0.00 0.00 43 1018.4
20260510121030 63 26 0.0 0.0 0.00 0.00 0.00 43 1018.5
20260510120031 63 26 0.0 0.0 0.00 0.00 0.00 43 1018.6
20260510115031 62 9 0.0 0.0 0.00 0.00 0.00 43 1018.7
20260510114031 63 15 0.0 0.0 0.00 0.00 0.00 43 1018.9
20260510113131 62 12 0.0 0.0 0.00 0.00 0.00 43 1019.0
20260510112133 62 333 0.0 0.0 0.00 0.00 0.00 43 1019.0
20260510110131 63 23 0.0 0.0 0.00 0.00 0.00 43 1019.1
20260510105132 63 53 0.0 0.0 0.00 0.00 0.00 43 1019.0
20260510104132 63 355 0.0 0.0 0.00 0.00 0.00 43 1019.0
20260510103132 63 5 0.0 0.0 0.00 0.00 0.00 43 1019.2
20260510101232 62 15 0.0 0.0 0.00 0.00 0.00 44 1019.4
20260510100249 62 3 0.0 0.0 0.00 0.00 0.00 43 1019.4
20260510095233 61 27 0.0 0.0 0.00 0.00 0.00 43 1019.3
20260510094231 61 345 0.0 0.0 0.00 0.00 0.00 43 1019.4
20260510093232 61 35 0.0 0.0 0.00 0.00 0.00 42 1019.4
20260510091233 59 52 0.0 0.0 0.00 0.00 0.00 41 1019.5
20260510085331 60 11 0.0 0.0 0.00 0.00 0.00 39 1019.5
20260510084332 59 16 0.0 0.0 0.00 0.00 0.00 39 1019.6
20260510083333 59 25 0.0 0.0 0.00 0.00 0.00 38 1019.6
20260510083234 59 18 0.0 0.0 0.00 0.00 0.00 38 1019.6
20260510082232 59 360 0.0 0.0 0.00 0.00 0.00 37 1019.6
20260510081231 57 1 0.0 0.0 0.00 0.00 0.00 37 1019.8
20260510080234 57 338 0.0 0.0 0.00 0.00 0.00 37 1019.9
20260510075233 56 356 0.0 0.0 0.00 0.00 0.00 37 1020.0
20260510073335 55 6 0.0 0.0 0.00 0.00 0.00 37 1020.0
20260510070333 54 6 0.0 0.0 0.00 0.00 0.00 37 1019.9
20260510064333 52 336 0.0 0.0 0.00 0.00 0.00 37 1019.9
20260510064247 52 332 0.0 0.0 0.00 0.00 0.00 37 1019.9
20260510063330 51 331 0.0 0.0 0.00 0.00 0.00 37 1019.9
20260510060431 49 334 0.0 0.0 0.00 0.00 0.00 38 1020.0
20260510055431 48 325 0.0 0.0 0.00 0.00 0.00 39 1019.9
20260510054431 48 2 0.0 0.0 0.00 0.00 0.00 39 1019.9
20260510053434 46 315 0.0 0.0 0.00 0.00 0.00 40 1019.9
20260510052433 46 292 0.0 0.0 0.00 0.00 0.00 40 1019.9
20260510051433 45 292 0.0 0.0 0.00 0.00 0.00 40 1019.9
20260510050530 45 292 0.0 0.0 0.00 0.00 0.00 40 1019.9
20260510045547 44 292 0.0 0.0 0.00 0.00 0.00 41 1019.6
20260510035632 43 315 0.0 0.0 0.00 0.00 0.00 41 1019.6
20260510033730 43 315 0.0 0.0 0.00 0.00 0.00 41 1019.6
20260510032730 43 315 0.0 0.0 0.00 0.00 0.00 41 1019.6
20260510030732 43 315 0.0 0.0 0.00 0.00 0.00 41 1019.6
20260510025732 43 315 0.0 0.0 0.00 0.00 0.00 41 1019.7
20260510024736 43 292 0.0 0.0 0.00 0.00 0.00 40 1019.8
20260510023833 44 270 0.0 0.0 0.00 0.00 0.00 40 1019.9
20260510021932 44 315 0.0 0.0 0.00 0.00 0.00 41 1019.9
20260510020932 43 315 0.0 0.0 0.00 0.00 0.00 41 1019.9
20260510015934 43 315 0.0 0.0 0.00 0.00 0.00 41 1019.9
20260510014934 44 315 0.0 0.0 0.00 0.00 0.00 40 1019.9
20260510014032 44 315 0.0 0.0 0.00 0.00 0.00 40 1020.0
20260510013046 44 315 0.0 0.0 0.00 0.00 0.00 40 1019.9
20260510012133 44 315 0.0 0.0 0.00 0.00 0.00 40 1019.9
20260510010130 44 315 0.0 0.0 0.00 0.00 0.00 40 1020.0
20260510005131 44 315 0.0 0.0 0.00 0.00 0.00 40 1020.0
20260510004148 44 315 0.0 0.0 0.00 0.00 0.00 40 1020.1
20260510001230 45 337 0.0 0.0 0.00 0.00 0.00 39 1020.5
20260510000233 46 337 0.0 0.0 0.00 0.00 0.00 39 1020.4
20260509235230 46 337 0.0 0.0 0.00 0.00 0.00 39 1020.6
20260509234231 46 337 0.0 0.0 0.00 0.00 0.00 40 1020.7
20260509231233 45 315 0.0 0.0 0.00 0.00 0.00 40 1020.7
20260509230232 45 315 0.0 0.0 0.00 0.00 0.00 40 1020.8
20260509225331 46 315 0.0 0.0 0.00 0.00 0.00 40 1020.9
20260509223331 47 315 0.0 0.0 0.00 0.00 0.00 39 1021.1
20260509222431 47 315 0.0 0.0 0.00 0.00 0.00 39 1021.1
20260509220431 48 315 0.0 0.0 0.00 0.00 0.00 38 1021.2
20260509215529 49 315 0.0 0.0 0.00 0.00 0.00 39 1021.1
20260509214528 49 337 0.0 0.0 0.00 0.00 0.00 39 1021.1
20260509212627 49 337 0.0 0.0 0.00 0.00 0.00 39 1021.3
20260509211631 49 315 0.0 0.0 0.00 0.00 0.00 39 1021.4
20260509211530 49 315 0.0 0.0 0.00 0.00 0.00 38 1021.4
20260509205529 49 337 0.0 0.0 0.00 0.00 0.00 39 1021.5
20260509204627 49 292 0.0 0.0 0.00 0.00 0.00 39 1021.6
20260509203628 49 270 0.0 0.0 0.00 0.00 0.00 39 1021.5
20260509202629 49 270 0.0 0.0 0.00 0.00 0.00 39 1021.7
20260509201630 50 270 0.0 0.0 0.00 0.00 0.00 38 1021.6
20260509195629 50 270 0.0 0.0 0.00 0.00 0.00 40 1021.5
20260509194628 51 270 0.0 0.0 0.00 0.00 0.00 40 1021.5
20260509193630 53 270 0.0 0.0 0.00 0.00 0.00 40 1021.5
20260509192629 54 337 0.0 0.0 0.00 0.00 0.00 42 1021.3
20260509185629 56 315 0.0 0.0 0.00 0.00 0.00 43 1021.2
20260509184630 57 315 0.0 0.0 0.00 0.00 0.00 43 1021.3
20260509183727 58 315 0.0 0.0 0.00 0.00 0.00 43 1021.3
20260509182827 59 315 0.0 0.0 0.00 0.00 0.00 43 1021.2
20260509181830 60 315 0.0 0.0 0.00 0.00 0.00 43 1021.4
20260509175844 63 292 0.0 0.0 0.00 0.00 0.00 42 1021.3
20260509174845 65 22 0.0 0.0 0.00 0.00 0.00 41 1021.1
20260509173828 65 45 0.0 0.0 0.00 0.00 0.00 41 1021.1
20260509171829 65 292 0.0 0.0 0.00 0.00 0.00 42 1021.1